Year,Month,Day,Hour,Minute,Value (Times are PST for temperature in C)
2016,06,28,00,00,19.10
2016,06,28,00,01,19.10
2016,06,28,00,02,19.00
2016,06,28,00,03,19.00
2016,06,28,00,04,19.00
2016,06,28,00,05,19.00
2016,06,28,00,06,19.00
2016,06,28,00,07,18.90
2016,06,28,00,08,18.90
2016,06,28,00,09,18.90
2016,06,28,00,10,18.90
2016,06,28,00,11,18.90
2016,06,28,00,12,18.80
2016,06,28,00,13,18.80
2016,06,28,00,14,18.80
2016,06,28,00,15,18.80
2016,06,28,00,16,18.80
2016,06,28,00,17,18.80
2016,06,28,00,18,18.80
2016,06,28,00,19,18.70
2016,06,28,00,20,18.70
2016,06,28,00,21,18.70
2016,06,28,00,22,18.70
2016,06,28,00,23,18.70
2016,06,28,00,24,18.70
2016,06,28,00,25,18.60
2016,06,28,00,26,18.60
2016,06,28,00,27,18.60
2016,06,28,00,28,18.60
2016,06,28,00,29,18.60
2016,06,28,00,30,18.50
2016,06,28,00,31,18.50
2016,06,28,00,32,18.50
2016,06,28,00,33,18.40
2016,06,28,00,34,18.40
2016,06,28,00,35,18.40
2016,06,28,00,36,18.40
2016,06,28,00,37,18.30
2016,06,28,00,38,18.30
2016,06,28,00,39,18.30
2016,06,28,00,40,18.30
2016,06,28,00,41,18.30
2016,06,28,00,42,18.20
2016,06,28,00,43,18.20
2016,06,28,00,44,18.20
2016,06,28,00,45,18.20
2016,06,28,00,46,18.20
2016,06,28,00,47,18.10
2016,06,28,00,48,18.10
2016,06,28,00,49,18.10
2016,06,28,00,50,18.10
2016,06,28,00,51,18.00
2016,06,28,00,52,18.00
2016,06,28,00,53,18.00
2016,06,28,00,54,17.90
2016,06,28,00,55,17.90
2016,06,28,00,56,17.90
2016,06,28,00,57,17.90
2016,06,28,00,58,17.80
2016,06,28,00,59,17.80
2016,06,28,01,00,17.80
2016,06,28,01,01,17.80
2016,06,28,01,02,17.80
2016,06,28,01,03,17.80
2016,06,28,01,04,17.70
2016,06,28,01,05,17.70
2016,06,28,01,06,17.70
2016,06,28,01,07,17.70
2016,06,28,01,08,17.70
2016,06,28,01,09,17.70
2016,06,28,01,10,17.70
2016,06,28,01,11,17.70
2016,06,28,01,12,17.70
2016,06,28,01,13,17.70
2016,06,28,01,14,17.70
2016,06,28,01,15,17.70
2016,06,28,01,16,17.70
2016,06,28,01,17,17.70
2016,06,28,01,18,17.70
2016,06,28,01,19,17.70
2016,06,28,01,20,17.70
2016,06,28,01,21,17.70
2016,06,28,01,22,17.70
2016,06,28,01,23,17.70
2016,06,28,01,24,17.70
2016,06,28,01,25,17.70
2016,06,28,01,26,17.70
2016,06,28,01,27,17.70
2016,06,28,01,28,17.70
2016,06,28,01,29,17.70
2016,06,28,01,30,17.70
2016,06,28,01,31,17.70
2016,06,28,01,32,17.70
2016,06,28,01,33,17.70
2016,06,28,01,34,17.70
2016,06,28,01,35,17.70
2016,06,28,01,36,17.70
2016,06,28,01,37,17.70
2016,06,28,01,38,17.60
2016,06,28,01,39,17.60
2016,06,28,01,40,17.60
2016,06,28,01,41,17.60
2016,06,28,01,42,17.60
2016,06,28,01,43,17.60
2016,06,28,01,44,17.60
2016,06,28,01,45,17.60
2016,06,28,01,46,17.50
2016,06,28,01,47,17.50
2016,06,28,01,48,17.50
2016,06,28,01,49,17.50
2016,06,28,01,50,17.50
2016,06,28,01,51,17.50
2016,06,28,01,52,17.50
2016,06,28,01,53,17.40
2016,06,28,01,54,17.40
2016,06,28,01,55,17.40
2016,06,28,01,56,17.40
2016,06,28,01,57,17.40
2016,06,28,01,58,17.40
2016,06,28,01,59,17.40
2016,06,28,02,00,17.30
2016,06,28,02,01,17.30
2016,06,28,02,02,17.30
2016,06,28,02,03,17.30
2016,06,28,02,04,17.30
2016,06,28,02,05,17.20
2016,06,28,02,06,17.20
2016,06,28,02,07,17.20
2016,06,28,02,08,17.10
2016,06,28,02,09,17.10
2016,06,28,02,10,17.10
2016,06,28,02,11,17.10
2016,06,28,02,12,17.00
2016,06,28,02,13,17.00
2016,06,28,02,14,17.00
2016,06,28,02,15,16.90
2016,06,28,02,16,16.90
2016,06,28,02,17,16.90
2016,06,28,02,18,16.90
2016,06,28,02,19,16.90
2016,06,28,02,20,16.90
2016,06,28,02,21,16.80
2016,06,28,02,22,16.80
2016,06,28,02,23,16.80
2016,06,28,02,24,16.80
2016,06,28,02,25,16.80
2016,06,28,02,26,16.80
2016,06,28,02,27,16.70
2016,06,28,02,28,16.70
2016,06,28,02,29,16.70
2016,06,28,02,30,16.70
2016,06,28,02,31,16.70
2016,06,28,02,32,16.70
2016,06,28,02,33,16.70
2016,06,28,02,34,16.60
2016,06,28,02,35,16.60
2016,06,28,02,36,16.60
2016,06,28,02,37,16.60
2016,06,28,02,38,16.60
2016,06,28,02,39,16.50
2016,06,28,02,40,16.50
2016,06,28,02,41,16.50
2016,06,28,02,42,16.50
2016,06,28,02,43,16.40
2016,06,28,02,44,16.40
2016,06,28,02,45,16.40
2016,06,28,02,46,16.40
2016,06,28,02,47,16.40
2016,06,28,02,48,16.40
2016,06,28,02,49,16.40
2016,06,28,02,50,16.30
2016,06,28,02,51,16.30
2016,06,28,02,52,16.30
2016,06,28,02,53,16.30
2016,06,28,02,54,16.30
2016,06,28,02,55,16.30
2016,06,28,02,56,16.30
2016,06,28,02,57,16.30
2016,06,28,02,58,16.20
2016,06,28,02,59,16.20
2016,06,28,03,00,16.20
2016,06,28,03,01,16.20
2016,06,28,03,02,16.20
2016,06,28,03,03,16.20
2016,06,28,03,04,16.10
2016,06,28,03,05,16.10
2016,06,28,03,06,16.10
2016,06,28,03,07,16.10
2016,06,28,03,08,16.10
2016,06,28,03,09,16.10
2016,06,28,03,10,16.10
2016,06,28,03,11,16.10
2016,06,28,03,12,16.00
2016,06,28,03,13,16.00
2016,06,28,03,14,16.00
2016,06,28,03,15,16.00
2016,06,28,03,16,15.90
2016,06,28,03,17,15.90
2016,06,28,03,18,15.90
2016,06,28,03,19,15.90
2016,06,28,03,20,15.90
2016,06,28,03,21,15.90
2016,06,28,03,22,15.90
2016,06,28,03,23,15.80
2016,06,28,03,24,15.80
2016,06,28,03,25,15.80
2016,06,28,03,26,15.80
2016,06,28,03,27,15.80
2016,06,28,03,28,15.80
2016,06,28,03,29,15.80
2016,06,28,03,30,15.80
2016,06,28,03,31,15.80
2016,06,28,03,32,15.70
2016,06,28,03,33,15.70
2016,06,28,03,34,15.70
2016,06,28,03,35,15.70
2016,06,28,03,36,15.70
2016,06,28,03,37,15.70
2016,06,28,03,38,15.70
2016,06,28,03,39,15.60
2016,06,28,03,40,15.60
2016,06,28,03,41,15.60
2016,06,28,03,42,15.60
2016,06,28,03,43,15.60
2016,06,28,03,44,15.60
2016,06,28,03,45,15.50
2016,06,28,03,46,15.50
2016,06,28,03,47,15.50
2016,06,28,03,48,15.50
2016,06,28,03,49,15.40
2016,06,28,03,50,15.40
2016,06,28,03,51,15.40
2016,06,28,03,52,15.40
2016,06,28,03,53,15.40
2016,06,28,03,54,15.40
2016,06,28,03,55,15.30
2016,06,28,03,56,15.30
2016,06,28,03,57,15.30
2016,06,28,03,58,15.20
2016,06,28,03,59,15.20
2016,06,28,04,00,15.20
2016,06,28,04,01,15.20
2016,06,28,04,02,15.20
2016,06,28,04,03,15.20
2016,06,28,04,04,15.10
2016,06,28,04,05,15.10
2016,06,28,04,06,15.10
2016,06,28,04,07,15.10
2016,06,28,04,08,15.10
2016,06,28,04,09,15.10
2016,06,28,04,10,15.10
2016,06,28,04,11,15.10
2016,06,28,04,12,15.00
2016,06,28,04,13,15.00
2016,06,28,04,14,15.00
2016,06,28,04,15,15.00
2016,06,28,04,16,15.00
2016,06,28,04,17,15.00
2016,06,28,04,18,15.00
2016,06,28,04,19,15.00
2016,06,28,04,20,14.90
2016,06,28,04,21,14.90
2016,06,28,04,22,14.90
2016,06,28,04,23,14.90
2016,06,28,04,24,14.90
2016,06,28,04,25,14.90
2016,06,28,04,26,14.90
2016,06,28,04,27,14.90
2016,06,28,04,28,14.90
2016,06,28,04,29,14.90
2016,06,28,04,30,14.80
2016,06,28,04,31,14.80
2016,06,28,04,32,14.80
2016,06,28,04,33,14.80
2016,06,28,04,34,14.80
2016,06,28,04,35,14.80
2016,06,28,04,36,14.80
2016,06,28,04,37,14.80
2016,06,28,04,38,14.70
2016,06,28,04,39,14.70
2016,06,28,04,40,14.70
2016,06,28,04,41,14.70
2016,06,28,04,42,14.70
2016,06,28,04,43,14.70
2016,06,28,04,44,14.70
2016,06,28,04,45,14.60
2016,06,28,04,46,14.60
2016,06,28,04,47,14.60
2016,06,28,04,48,14.60
2016,06,28,04,49,14.60
2016,06,28,04,50,14.60
2016,06,28,04,51,14.60
2016,06,28,04,52,14.50
2016,06,28,04,53,14.50
2016,06,28,04,54,14.50
2016,06,28,04,55,14.50
2016,06,28,04,56,14.40
2016,06,28,04,57,14.40
2016,06,28,04,58,14.40
2016,06,28,04,59,14.40
2016,06,28,05,00,14.40
2016,06,28,05,01,14.40
2016,06,28,05,02,14.40
2016,06,28,05,03,14.40
2016,06,28,05,04,14.40
2016,06,28,05,05,14.30
2016,06,28,05,06,14.30
2016,06,28,05,07,14.30
2016,06,28,05,08,14.30
2016,06,28,05,09,14.30
2016,06,28,05,10,14.30
2016,06,28,05,11,14.30
2016,06,28,05,12,14.30
2016,06,28,05,13,14.30
2016,06,28,05,14,14.30
2016,06,28,05,15,14.30
2016,06,28,05,16,14.20
2016,06,28,05,17,14.20
2016,06,28,05,18,14.20
2016,06,28,05,19,14.20
2016,06,28,05,20,14.20
2016,06,28,05,21,14.20
2016,06,28,05,22,14.20
2016,06,28,05,23,14.20
2016,06,28,05,24,14.20
2016,06,28,05,25,14.20
2016,06,28,05,26,14.10
2016,06,28,05,27,14.10
2016,06,28,05,28,14.10
2016,06,28,05,29,14.10
2016,06,28,05,30,14.10
2016,06,28,05,31,14.10
2016,06,28,05,32,14.10
2016,06,28,05,33,14.10
2016,06,28,05,34,14.10
2016,06,28,05,35,14.00
2016,06,28,05,36,14.00
2016,06,28,05,37,14.00
2016,06,28,05,38,14.00
2016,06,28,05,39,14.00
2016,06,28,05,40,14.00
2016,06,28,05,41,13.90
2016,06,28,05,42,13.90
2016,06,28,05,43,13.90
2016,06,28,05,44,13.90
2016,06,28,05,45,13.90
2016,06,28,05,46,13.90
2016,06,28,05,47,13.90
2016,06,28,05,48,13.90
2016,06,28,05,49,13.90
2016,06,28,05,50,13.90
2016,06,28,05,51,13.90
2016,06,28,05,52,13.90
2016,06,28,05,53,13.90
2016,06,28,05,54,13.90
2016,06,28,05,55,13.90
2016,06,28,05,56,13.90
2016,06,28,05,57,13.90
2016,06,28,05,58,13.90
2016,06,28,05,59,13.90
2016,06,28,06,00,13.90
2016,06,28,06,01,13.90
2016,06,28,06,02,13.90
2016,06,28,06,03,13.90
2016,06,28,06,04,13.90
2016,06,28,06,05,13.90
2016,06,28,06,06,13.90
2016,06,28,06,07,13.90
2016,06,28,06,08,13.90
2016,06,28,06,09,13.90
2016,06,28,06,10,13.90
2016,06,28,06,11,13.90
2016,06,28,06,12,14.00
2016,06,28,06,13,14.00
2016,06,28,06,14,14.00
2016,06,28,06,15,14.00
2016,06,28,06,16,14.00
2016,06,28,06,17,14.00
2016,06,28,06,18,14.00
2016,06,28,06,19,14.00
2016,06,28,06,20,14.00
2016,06,28,06,21,14.10
2016,06,28,06,22,14.10
2016,06,28,06,23,14.10
2016,06,28,06,24,14.10
2016,06,28,06,25,14.10
2016,06,28,06,26,14.10
2016,06,28,06,27,14.10
2016,06,28,06,28,14.10
2016,06,28,06,29,14.20
2016,06,28,06,30,14.20
2016,06,28,06,31,14.20
2016,06,28,06,32,14.20
2016,06,28,06,33,14.20
2016,06,28,06,34,14.20
2016,06,28,06,35,14.20
2016,06,28,06,36,14.20
2016,06,28,06,37,14.20
2016,06,28,06,38,14.20
2016,06,28,06,39,14.20
2016,06,28,06,40,14.20
2016,06,28,06,41,14.20
2016,06,28,06,42,14.30
2016,06,28,06,43,14.30
2016,06,28,06,44,14.30
2016,06,28,06,45,14.30
2016,06,28,06,46,14.30
2016,06,28,06,47,14.30
2016,06,28,06,48,14.30
2016,06,28,06,49,14.30
2016,06,28,06,50,14.30
2016,06,28,06,51,14.30
2016,06,28,06,52,14.30
2016,06,28,06,53,14.40
2016,06,28,06,54,14.40
2016,06,28,06,55,14.40
2016,06,28,06,56,14.40
2016,06,28,06,57,14.40
2016,06,28,06,58,14.40
2016,06,28,06,59,14.40
2016,06,28,07,00,14.50
2016,06,28,07,01,14.50
2016,06,28,07,02,14.50
2016,06,28,07,03,14.50
2016,06,28,07,04,14.50
2016,06,28,07,05,14.50
2016,06,28,07,06,14.50
2016,06,28,07,07,14.60
2016,06,28,07,08,14.60
2016,06,28,07,09,14.60
2016,06,28,07,10,14.60
2016,06,28,07,11,14.70
2016,06,28,07,12,14.70
2016,06,28,07,13,14.70
2016,06,28,07,14,14.70
2016,06,28,07,15,14.80
2016,06,28,07,16,14.80
2016,06,28,07,17,14.80
2016,06,28,07,18,14.90
2016,06,28,07,19,14.90
2016,06,28,07,20,15.00
2016,06,28,07,21,15.00
2016,06,28,07,22,15.10
2016,06,28,07,23,15.10
2016,06,28,07,24,15.20
2016,06,28,07,25,15.20
2016,06,28,07,26,15.30
2016,06,28,07,27,15.30
2016,06,28,07,28,15.30
2016,06,28,07,29,15.40
2016,06,28,07,30,15.40
2016,06,28,07,31,15.40
2016,06,28,07,32,15.50
2016,06,28,07,33,15.50
2016,06,28,07,34,15.50
2016,06,28,07,35,15.60
2016,06,28,07,36,15.60
2016,06,28,07,37,15.60
2016,06,28,07,38,15.70
2016,06,28,07,39,15.70
2016,06,28,07,40,15.70
2016,06,28,07,41,15.80
2016,06,28,07,42,15.80
2016,06,28,07,43,15.80
2016,06,28,07,44,15.80
2016,06,28,07,45,15.80
2016,06,28,07,46,15.90
2016,06,28,07,47,15.90
2016,06,28,07,48,16.00
2016,06,28,07,49,16.00
2016,06,28,07,50,16.10
2016,06,28,07,51,16.10
2016,06,28,07,52,16.20
2016,06,28,07,53,16.20
2016,06,28,07,54,16.30
2016,06,28,07,55,16.30
2016,06,28,07,56,16.30
2016,06,28,07,57,16.40
2016,06,28,07,58,16.40
2016,06,28,07,59,16.50
2016,06,28,08,00,16.50
2016,06,28,08,01,16.60
2016,06,28,08,02,16.60
2016,06,28,08,03,16.70
2016,06,28,08,04,16.70
2016,06,28,08,05,16.80
2016,06,28,08,06,16.80
2016,06,28,08,07,16.90
2016,06,28,08,08,16.90
2016,06,28,08,09,16.90
2016,06,28,08,10,17.00
2016,06,28,08,11,17.00
2016,06,28,08,12,17.10
2016,06,28,08,13,17.10
2016,06,28,08,14,17.10
2016,06,28,08,15,17.20
2016,06,28,08,16,17.20
2016,06,28,08,17,17.30
2016,06,28,08,18,17.30
2016,06,28,08,19,17.30
2016,06,28,08,20,17.30
2016,06,28,08,21,17.40
2016,06,28,08,22,17.40
2016,06,28,08,23,17.40
2016,06,28,08,24,17.40
2016,06,28,08,25,17.50
2016,06,28,08,26,17.50
2016,06,28,08,27,17.50
2016,06,28,08,28,17.60
2016,06,28,08,29,17.60
2016,06,28,08,30,17.60
2016,06,28,08,31,17.70
2016,06,28,08,32,17.70
2016,06,28,08,33,17.70
2016,06,28,08,34,17.70
2016,06,28,08,35,17.80
2016,06,28,08,36,17.80
2016,06,28,08,37,17.80
2016,06,28,08,38,17.90
2016,06,28,08,39,17.90
2016,06,28,08,40,18.00
2016,06,28,08,41,18.00
2016,06,28,08,42,18.10
2016,06,28,08,43,18.10
2016,06,28,08,44,18.20
2016,06,28,08,45,18.20
2016,06,28,08,46,18.20
2016,06,28,08,47,18.20
2016,06,28,08,48,18.20
2016,06,28,08,49,18.20
2016,06,28,08,50,18.20
2016,06,28,08,51,18.20
2016,06,28,08,52,18.30
2016,06,28,08,53,18.30
2016,06,28,08,54,18.30
2016,06,28,08,55,18.30
2016,06,28,08,56,18.30
2016,06,28,08,57,18.30
2016,06,28,08,58,18.30
2016,06,28,08,59,18.40
2016,06,28,09,00,18.40
2016,06,28,09,01,18.50
2016,06,28,09,02,18.50
2016,06,28,09,03,18.50
2016,06,28,09,04,18.50
2016,06,28,09,05,18.60
2016,06,28,09,06,18.60
2016,06,28,09,07,18.60
2016,06,28,09,08,18.60
2016,06,28,09,09,18.60
2016,06,28,09,10,18.60
2016,06,28,09,11,18.60
2016,06,28,09,12,18.60
2016,06,28,09,13,18.60
2016,06,28,09,14,18.60
2016,06,28,09,15,18.60
2016,06,28,09,16,18.70
2016,06,28,09,17,18.70
2016,06,28,09,18,18.70
2016,06,28,09,19,18.70
2016,06,28,09,20,18.80
2016,06,28,09,21,18.80
2016,06,28,09,22,18.90
2016,06,28,09,23,18.90
2016,06,28,09,24,19.00
2016,06,28,09,25,19.10
2016,06,28,09,26,19.10
2016,06,28,09,27,19.10
2016,06,28,09,28,19.00
2016,06,28,09,29,19.00
2016,06,28,09,30,19.00
2016,06,28,09,31,19.00
2016,06,28,09,32,19.00
2016,06,28,09,33,19.00
2016,06,28,09,34,19.10
2016,06,28,09,35,19.10
2016,06,28,09,36,19.20
2016,06,28,09,37,19.20
2016,06,28,09,38,19.20
2016,06,28,09,39,19.30
2016,06,28,09,40,19.40
2016,06,28,09,41,19.50
2016,06,28,09,42,19.50
2016,06,28,09,43,19.60
2016,06,28,09,44,19.70
2016,06,28,09,45,19.70
2016,06,28,09,46,19.80
2016,06,28,09,47,19.80
2016,06,28,09,48,19.80
2016,06,28,09,49,19.80
2016,06,28,09,50,19.80
2016,06,28,09,51,19.80
2016,06,28,09,52,19.90
2016,06,28,09,53,19.90
2016,06,28,09,54,20.00
2016,06,28,09,55,20.00
2016,06,28,09,56,20.10
2016,06,28,09,57,20.20
2016,06,28,09,58,20.20
2016,06,28,09,59,20.30
2016,06,28,10,00,20.40
2016,06,28,10,01,20.50
2016,06,28,10,02,20.60
2016,06,28,10,03,20.60
2016,06,28,10,04,20.70
2016,06,28,10,05,20.70
2016,06,28,10,06,20.70
2016,06,28,10,07,20.70
2016,06,28,10,08,20.80
2016,06,28,10,09,20.80
2016,06,28,10,10,20.80
2016,06,28,10,11,20.80
2016,06,28,10,12,20.80
2016,06,28,10,13,20.80
2016,06,28,10,14,20.80
2016,06,28,10,15,20.80
2016,06,28,10,16,20.80
2016,06,28,10,17,20.80
2016,06,28,10,18,20.80
2016,06,28,10,19,20.90
2016,06,28,10,20,20.90
2016,06,28,10,21,20.90
2016,06,28,10,22,21.00
2016,06,28,10,23,21.10
2016,06,28,10,24,21.10
2016,06,28,10,25,21.10
2016,06,28,10,26,21.10
2016,06,28,10,27,21.10
2016,06,28,10,28,21.10
2016,06,28,10,29,21.20
2016,06,28,10,30,21.20
2016,06,28,10,31,21.30
2016,06,28,10,32,21.30
2016,06,28,10,33,21.40
2016,06,28,10,34,21.40
2016,06,28,10,35,21.40
2016,06,28,10,36,21.40
2016,06,28,10,37,21.40
2016,06,28,10,38,21.40
2016,06,28,10,39,21.50
2016,06,28,10,40,21.60
2016,06,28,10,41,21.60
2016,06,28,10,42,21.60
2016,06,28,10,43,21.70
2016,06,28,10,44,21.70
2016,06,28,10,45,21.80
2016,06,28,10,46,21.80
2016,06,28,10,47,21.80
2016,06,28,10,48,21.80
2016,06,28,10,49,21.80
2016,06,28,10,50,21.80
2016,06,28,10,51,21.80
2016,06,28,10,52,21.80
2016,06,28,10,53,21.80
2016,06,28,10,54,21.80
2016,06,28,10,55,21.90
2016,06,28,10,56,22.00
2016,06,28,10,57,22.10
2016,06,28,10,58,22.20
2016,06,28,10,59,22.30
2016,06,28,11,00,22.40
2016,06,28,11,01,22.50
2016,06,28,11,02,22.60
2016,06,28,11,03,22.60
2016,06,28,11,04,22.60
2016,06,28,11,05,22.60
2016,06,28,11,06,22.60
2016,06,28,11,07,22.50
2016,06,28,11,08,22.50
2016,06,28,11,09,22.50
2016,06,28,11,10,22.50
2016,06,28,11,11,22.50
2016,06,28,11,12,22.60
2016,06,28,11,13,22.60
2016,06,28,11,14,22.60
2016,06,28,11,15,22.50
2016,06,28,11,16,22.50
2016,06,28,11,17,22.40
2016,06,28,11,18,22.40
2016,06,28,11,19,22.40
2016,06,28,11,20,22.40
2016,06,28,11,21,22.50
2016,06,28,11,22,22.50
2016,06,28,11,23,22.60
2016,06,28,11,24,22.60
2016,06,28,11,25,22.60
2016,06,28,11,26,22.60
2016,06,28,11,27,22.70
2016,06,28,11,28,22.70
2016,06,28,11,29,22.70
2016,06,28,11,30,22.80
2016,06,28,11,31,22.80
2016,06,28,11,32,22.80
2016,06,28,11,33,22.90
2016,06,28,11,34,22.90
2016,06,28,11,35,23.00
2016,06,28,11,36,23.00
2016,06,28,11,37,23.10
2016,06,28,11,38,23.20
2016,06,28,11,39,23.20
2016,06,28,11,40,23.20
2016,06,28,11,41,23.20
2016,06,28,11,42,23.20
2016,06,28,11,43,23.20
2016,06,28,11,44,23.20
2016,06,28,11,45,23.20
2016,06,28,11,46,23.10
2016,06,28,11,47,23.10
2016,06,28,11,48,23.00
2016,06,28,11,49,23.00
2016,06,28,11,50,23.00
2016,06,28,11,51,23.00
2016,06,28,11,52,23.10
2016,06,28,11,53,23.10
2016,06,28,11,54,23.20
2016,06,28,11,55,23.20
2016,06,28,11,56,23.30
2016,06,28,11,57,23.30
2016,06,28,11,58,23.30
2016,06,28,11,59,23.20
2016,06,28,12,00,23.20
2016,06,28,12,01,23.30
2016,06,28,12,02,23.30
2016,06,28,12,03,23.20
2016,06,28,12,04,23.20
2016,06,28,12,05,23.20
2016,06,28,12,06,23.30
2016,06,28,12,07,23.30
2016,06,28,12,08,23.30
2016,06,28,12,09,23.40
2016,06,28,12,10,23.40
2016,06,28,12,11,23.40
2016,06,28,12,12,23.30
2016,06,28,12,13,23.20
2016,06,28,12,14,23.10
2016,06,28,12,15,23.00
2016,06,28,12,16,23.00
2016,06,28,12,17,22.90
2016,06,28,12,18,22.90
2016,06,28,12,19,22.80
2016,06,28,12,20,22.80
2016,06,28,12,21,22.80
2016,06,28,12,22,22.80
2016,06,28,12,23,22.80
2016,06,28,12,24,22.80
2016,06,28,12,25,22.70
2016,06,28,12,26,22.70
2016,06,28,12,27,22.70
2016,06,28,12,28,22.70
2016,06,28,12,29,22.70
2016,06,28,12,30,22.70
2016,06,28,12,31,22.70
2016,06,28,12,32,22.70
2016,06,28,12,33,22.70
2016,06,28,12,34,22.70
2016,06,28,12,35,22.70
2016,06,28,12,36,22.70
2016,06,28,12,37,22.80
2016,06,28,12,38,22.80
2016,06,28,12,39,22.80
2016,06,28,12,40,22.80
2016,06,28,12,41,22.70
2016,06,28,12,42,22.70
2016,06,28,12,43,22.70
2016,06,28,12,44,22.70
2016,06,28,12,45,22.70
2016,06,28,12,46,22.70
2016,06,28,12,47,22.70
2016,06,28,12,48,22.70
2016,06,28,12,49,22.80
2016,06,28,12,50,22.80
2016,06,28,12,51,22.90
2016,06,28,12,52,22.90
2016,06,28,12,53,22.90
2016,06,28,12,54,23.00
2016,06,28,12,55,23.00
2016,06,28,12,56,23.00
2016,06,28,12,57,23.10
2016,06,28,12,58,23.10
2016,06,28,12,59,23.10
2016,06,28,13,00,23.20
2016,06,28,13,01,23.20
2016,06,28,13,02,23.20
2016,06,28,13,03,23.20
2016,06,28,13,04,23.20
2016,06,28,13,05,23.20
2016,06,28,13,06,23.20
2016,06,28,13,07,23.20
2016,06,28,13,08,23.20
2016,06,28,13,09,23.20
2016,06,28,13,10,23.20
2016,06,28,13,11,23.20
2016,06,28,13,12,23.20
2016,06,28,13,13,23.20
2016,06,28,13,14,23.10
2016,06,28,13,15,23.20
2016,06,28,13,16,23.20
2016,06,28,13,17,23.20
2016,06,28,13,18,23.20
2016,06,28,13,19,23.20
2016,06,28,13,20,23.10
2016,06,28,13,21,23.10
2016,06,28,13,22,23.20
2016,06,28,13,23,23.20
2016,06,28,13,24,23.20
2016,06,28,13,25,23.30
2016,06,28,13,26,23.30
2016,06,28,13,27,23.30
2016,06,28,13,28,23.30
2016,06,28,13,29,23.40
2016,06,28,13,30,23.40
2016,06,28,13,31,23.50
2016,06,28,13,32,23.50
2016,06,28,13,33,23.50
2016,06,28,13,34,23.50
2016,06,28,13,35,23.50
2016,06,28,13,36,23.50
2016,06,28,13,37,23.50
2016,06,28,13,38,23.50
2016,06,28,13,39,23.60
2016,06,28,13,40,23.70
2016,06,28,13,41,23.70
2016,06,28,13,42,23.60
2016,06,28,13,43,23.70
2016,06,28,13,44,23.70
2016,06,28,13,45,23.70
2016,06,28,13,46,23.80
2016,06,28,13,47,23.80
2016,06,28,13,48,23.80
2016,06,28,13,49,23.70
2016,06,28,13,50,23.70
2016,06,28,13,51,23.70
2016,06,28,13,52,23.70
2016,06,28,13,53,23.70
2016,06,28,13,54,23.70
2016,06,28,13,55,23.80
2016,06,28,13,56,23.80
2016,06,28,13,57,23.70
2016,06,28,13,58,23.80
2016,06,28,13,59,23.70
2016,06,28,14,00,23.80
2016,06,28,14,01,23.80
2016,06,28,14,02,23.80
2016,06,28,14,03,23.80
2016,06,28,14,04,23.80
2016,06,28,14,05,23.90
2016,06,28,14,06,23.90
2016,06,28,14,07,23.90
2016,06,28,14,08,23.90
2016,06,28,14,09,23.90
2016,06,28,14,10,24.00
2016,06,28,14,11,24.00
2016,06,28,14,12,24.00
2016,06,28,14,13,24.10
2016,06,28,14,14,24.00
2016,06,28,14,15,24.10
2016,06,28,14,16,24.10
2016,06,28,14,17,24.10
2016,06,28,14,18,24.10
2016,06,28,14,19,24.10
2016,06,28,14,20,24.20
2016,06,28,14,21,24.20
2016,06,28,14,22,24.20
2016,06,28,14,23,24.30
2016,06,28,14,24,24.30
2016,06,28,14,25,24.30
2016,06,28,14,26,24.40
2016,06,28,14,27,24.40
2016,06,28,14,28,24.40
2016,06,28,14,29,24.40
2016,06,28,14,30,24.40
2016,06,28,14,31,24.50
2016,06,28,14,32,24.50
2016,06,28,14,33,24.50
2016,06,28,14,34,24.50
2016,06,28,14,35,24.50
2016,06,28,14,36,24.50
2016,06,28,14,37,24.60
2016,06,28,14,38,24.60
2016,06,28,14,39,24.60
2016,06,28,14,40,24.60
2016,06,28,14,41,24.60
2016,06,28,14,42,24.60
2016,06,28,14,43,24.70
2016,06,28,14,44,24.80
2016,06,28,14,45,24.80
2016,06,28,14,46,24.90
2016,06,28,14,47,24.90
2016,06,28,14,48,24.90
2016,06,28,14,49,24.90
2016,06,28,14,50,25.00
2016,06,28,14,51,25.00
2016,06,28,14,52,25.00
2016,06,28,14,53,25.10
2016,06,28,14,54,25.10
2016,06,28,14,55,25.10
2016,06,28,14,56,25.10
2016,06,28,14,57,25.10
2016,06,28,14,58,25.10
2016,06,28,14,59,25.10
2016,06,28,15,00,25.20
2016,06,28,15,01,25.20
2016,06,28,15,02,25.20
2016,06,28,15,03,25.20
2016,06,28,15,04,25.20
2016,06,28,15,05,25.30
2016,06,28,15,06,25.20
2016,06,28,15,07,25.20
2016,06,28,15,08,25.10
2016,06,28,15,09,25.10
2016,06,28,15,10,25.00
2016,06,28,15,11,25.10
2016,06,28,15,12,25.10
2016,06,28,15,13,25.10
2016,06,28,15,14,25.10
2016,06,28,15,15,25.00
2016,06,28,15,16,25.00
2016,06,28,15,17,24.90
2016,06,28,15,18,24.90
2016,06,28,15,19,24.80
2016,06,28,15,20,24.80
2016,06,28,15,21,24.80
2016,06,28,15,22,24.80
2016,06,28,15,23,24.80
2016,06,28,15,24,24.80
2016,06,28,15,25,24.80
2016,06,28,15,26,24.80
2016,06,28,15,27,24.80
2016,06,28,15,28,24.80
2016,06,28,15,29,24.80
2016,06,28,15,30,24.80
2016,06,28,15,31,24.80
2016,06,28,15,32,24.80
2016,06,28,15,33,24.70
2016,06,28,15,34,24.70
2016,06,28,15,35,24.70
2016,06,28,15,36,24.70
2016,06,28,15,37,24.70
2016,06,28,15,38,24.70
2016,06,28,15,39,24.70
2016,06,28,15,40,24.70
2016,06,28,15,41,24.70
2016,06,28,15,42,24.70
2016,06,28,15,43,24.80
2016,06,28,15,44,24.80
2016,06,28,15,45,24.80
2016,06,28,15,46,24.80
2016,06,28,15,47,24.90
2016,06,28,15,48,24.90
2016,06,28,15,49,25.00
2016,06,28,15,50,25.00
2016,06,28,15,51,25.10
2016,06,28,15,52,25.10
2016,06,28,15,53,25.10
2016,06,28,15,54,25.10
2016,06,28,15,55,25.10
2016,06,28,15,56,25.10
2016,06,28,15,57,25.10
2016,06,28,15,58,25.10
2016,06,28,15,59,25.00
2016,06,28,16,00,25.10
2016,06,28,16,01,25.10
2016,06,28,16,02,25.10
2016,06,28,16,03,25.10
2016,06,28,16,04,25.10
2016,06,28,16,05,25.20
2016,06,28,16,06,25.30
2016,06,28,16,07,25.30
2016,06,28,16,08,25.40
2016,06,28,16,09,25.40
2016,06,28,16,10,25.40
2016,06,28,16,11,25.40
2016,06,28,16,12,25.30
2016,06,28,16,13,25.30
2016,06,28,16,14,25.30
2016,06,28,16,15,25.30
2016,06,28,16,16,25.30
2016,06,28,16,17,25.30
2016,06,28,16,18,25.40
2016,06,28,16,19,25.40
2016,06,28,16,20,25.40
2016,06,28,16,21,25.40
2016,06,28,16,22,25.40
2016,06,28,16,23,25.40
2016,06,28,16,24,25.50
2016,06,28,16,25,25.40
2016,06,28,16,26,25.40
2016,06,28,16,27,25.50
2016,06,28,16,28,25.50
2016,06,28,16,29,25.50
2016,06,28,16,30,25.50
2016,06,28,16,31,25.50
2016,06,28,16,32,25.50
2016,06,28,16,33,25.50
2016,06,28,16,34,25.40
2016,06,28,16,35,25.40
2016,06,28,16,36,25.40
2016,06,28,16,37,25.40
2016,06,28,16,38,25.40
2016,06,28,16,39,25.40
2016,06,28,16,40,25.40
2016,06,28,16,41,25.30
2016,06,28,16,42,25.30
2016,06,28,16,43,25.30
2016,06,28,16,44,25.30
2016,06,28,16,45,25.30
2016,06,28,16,46,25.30
2016,06,28,16,47,25.20
2016,06,28,16,48,25.20
2016,06,28,16,49,25.20
2016,06,28,16,50,25.10
2016,06,28,16,51,25.10
2016,06,28,16,52,25.10
2016,06,28,16,53,25.10
2016,06,28,16,54,25.10
2016,06,28,16,55,25.10
2016,06,28,16,56,25.10
2016,06,28,16,57,25.10
2016,06,28,16,58,25.10
2016,06,28,16,59,25.10
2016,06,28,17,00,25.10
2016,06,28,17,01,25.10
2016,06,28,17,02,25.10
2016,06,28,17,03,25.10
2016,06,28,17,04,25.00
2016,06,28,17,05,25.00
2016,06,28,17,06,24.90
2016,06,28,17,07,24.90
2016,06,28,17,08,24.90
2016,06,28,17,09,24.90
2016,06,28,17,10,24.90
2016,06,28,17,11,24.90
2016,06,28,17,12,24.90
2016,06,28,17,13,24.80
2016,06,28,17,14,24.80
2016,06,28,17,15,24.80
2016,06,28,17,16,24.80
2016,06,28,17,17,24.70
2016,06,28,17,18,24.70
2016,06,28,17,19,24.70